Colorado Springs, CO

4:45 PM MDT on August 29, 2016 (GMT -0600)
Usaf Academy

Weather History for KAFF - December, 2013

Change the Weather History Date:

Monday, December 9, 2013

  Actual Average Record
Temperature  
Mean Temperature 10 °F -  
Max Temperature 25 °F 41 °F 64 °F (1996)
Min Temperature -5 °F 19 °F -5 °F (2013)
Degree Days  
Heating Degree Days 55    
Moisture  
Dew Point -4 °F    
Average Humidity 57    
Maximum Humidity 85    
Minimum Humidity 20    
Precipitation  
Precipitation 0.03 in - - ()
Sea Level Pressure  
Sea Level Pressure 30.07 in    
Wind  
Wind Speed 10 mph (WSW)    
Max Wind Speed 36 mph    
Max Gust Speed 51 mph    
Visibility 8 miles    
Events Snow    
Averages and records for this station are not official NWS values.
T = Trace of Precipitation, MM = Missing Value Source: NWS Daily Summary

Daily Weather History Graph

Daily Weather History Graph

Search for Another Location

Airport or City:

Trip Planner

Search our weather history database for the weather conditions in past years. The results will help you decide how hot, cold, wet, or windy it might be!

Date:

Astronomy

Dec. 09, 2013 Rise Set
Actual Time 7:06 AM MST 4:36 PM MST
Civil Twilight 6:36 AM MST 5:06 PM MST
Nautical Twilight 6:03 AM MST 5:40 PM MST
Astronomical Twilight 5:30 AM MST 6:12 PM MST
Moon 12:04 PM MST (12/9) No Moon Set
Length of Visible Light 10h 30m
Length of Day
9h 30m
First Quarter, 52% of the Moon is Illuminated
Dec 9
First Quarter
Dec 17
Full
Dec 25
Last Quarter
Jan 1
New
Jan 7
First Quarter

Hourly Weather History & Observations

Time (MST) Temp. Windchill Dew Point Humidity Pressure Visibility Wind Dir Wind Speed Gust Speed Precip Events Conditions
12:22 AM 5.0 °F -6.9 °F 1.4 °F 85% 29.91 in 7.0 mi South 6.9 mph - N/A Snow Light Snow
12:35 AM 5.0 °F -10.0 °F 1.4 °F 85% 29.90 in 6.0 mi SSE 10.4 mph - N/A   Haze
12:58 AM 5.5 °F -9.3 °F 0.3 °F 79% 30.13 in 9.0 mi South 10.4 mph - 0.00 in   Overcast
1:26 AM 5.0 °F -8.1 °F -0.4 °F 78% 29.91 in 5.0 mi South 8.1 mph - N/A Snow Light Snow
1:41 AM 5.0 °F -10.0 °F -0.4 °F 78% 29.92 in 4.0 mi SSE 10.4 mph - N/A Snow Light Snow
1:46 AM 5.0 °F -9.1 °F -0.4 °F 78% 29.92 in 3.0 mi SSE 9.2 mph - N/A Snow Light Snow
1:58 AM 4.8 °F -8.3 °F -0.4 °F 79% 30.15 in 3.0 mi South 8.1 mph - 0.00 in Snow Light Snow
2:03 AM 5.0 °F -8.1 °F -0.4 °F 78% 29.92 in 4.0 mi South 8.1 mph - N/A Snow Light Snow
2:08 AM 5.0 °F -6.9 °F -0.4 °F 78% 29.92 in 5.0 mi South 6.9 mph - N/A Snow Light Snow
2:43 AM 5.0 °F -8.1 °F -0.4 °F 78% 29.92 in 7.0 mi SSE 8.1 mph - N/A Snow Light Snow
2:45 AM 5.0 °F -8.1 °F -0.4 °F 78% 29.92 in 9.0 mi South 8.1 mph - N/A   Overcast
2:50 AM 5.0 °F -8.1 °F -0.4 °F 78% 29.92 in 10.0 mi South 8.1 mph - N/A   Overcast
2:58 AM 3.9 °F -9.4 °F -1.5 °F 78% 30.16 in 10.0 mi SSE 8.1 mph - 0.00 in   Overcast
3:43 AM 3.2 °F -7.8 °F -2.2 °F 78% 29.91 in 10.0 mi SE 5.8 mph - N/A Snow Light Snow
3:58 AM 3.7 °F -7.1 °F -2.2 °F 76% 30.16 in 8.0 mi SSE 5.8 mph - 0.00 in Snow Light Snow
4:32 AM 3.2 °F -6.2 °F -2.2 °F 78% 29.91 in 7.0 mi South 4.6 mph - N/A   Overcast
4:48 AM 1.4 °F - -2.2 °F 85% 29.90 in 10.0 mi NNW 2.3 mph - N/A Snow Light Snow
4:53 AM 1.4 °F - -4.0 °F 78% 29.90 in 10.0 mi North 2.3 mph - N/A Snow Light Snow
4:58 AM 0.9 °F -8.9 °F -4.0 °F 80% 30.18 in 9.0 mi North 4.6 mph - 0.00 in Snow Light Snow
5:38 AM -0.4 °F -13.4 °F -4.0 °F 85% 29.92 in 4.0 mi North 6.9 mph - N/A Snow Light Snow
5:58 AM -0.4 °F -10.4 °F -5.8 °F 78% 30.22 in 5.0 mi North 4.6 mph - 0.00 in Snow Light Snow
6:36 AM -2.2 °F -10.4 °F -5.8 °F 85% 29.93 in 6.0 mi NW 3.5 mph - N/A   Haze
6:41 AM -2.2 °F -12.5 °F -7.6 °F 78% 29.93 in 7.0 mi North 4.6 mph - N/A Snow Light Snow
6:58 AM -2.2 °F - -7.6 °F 78% 30.23 in 9.0 mi Variable 2.3 mph - 0.00 in Snow Light Snow
7:31 AM -5.8 °F -23.4 °F -11.2 °F 77% 29.94 in 5.0 mi North 10.4 mph - N/A Snow Light Snow
7:58 AM -0.9 °F - -5.4 °F 81% 30.26 in 4.0 mi Variable 2.3 mph - 0.00 in Snow Light Snow
8:20 AM -0.4 °F -14.7 °F -5.8 °F 78% 29.96 in 4.0 mi North 8.1 mph - N/A Snow Light Snow
8:36 AM -0.4 °F -8.3 °F -4.0 °F 85% 29.96 in 5.0 mi NNW 3.5 mph - N/A Snow Light Snow
8:58 AM 1.2 °F -6.4 °F -3.5 °F 81% 30.27 in 10.0 mi ESE 3.5 mph - 0.00 in Snow Light Snow
9:58 AM 6.3 °F -0.7 °F -0.8 °F 73% 30.25 in 10.0 mi East 3.5 mph - 0.00 in   Partly Cloudy
10:58 AM 10.2 °F -0.6 °F 0.7 °F 65% 30.22 in 10.0 mi South 6.9 mph - N/A   Clear
11:58 AM 12.0 °F -2.7 °F 3.4 °F 68% 30.17 in 10.0 mi South 12.7 mph - N/A   Clear
12:58 PM 12.6 °F 0.2 °F 3.2 °F 66% 30.19 in 10.0 mi South 9.2 mph - N/A   Clear
1:58 PM 14.5 °F 7.1 °F 2.8 °F 60% 30.19 in 10.0 mi SSE 4.6 mph - N/A   Clear
2:58 PM 16.7 °F 8.3 °F 1.8 °F 52% 30.19 in 10.0 mi SSE 5.8 mph - N/A   Clear
3:58 PM 17.1 °F 11.7 °F 1.4 °F 50% 30.22 in 10.0 mi Variable 3.5 mph - N/A   Clear
4:53 PM 21.2 °F 8.3 °F -11.2 °F 24% 29.97 in 10.0 mi West 13.8 mph 25.3 mph N/A   Clear
4:58 PM 21.9 °F 11.7 °F -10.7 °F 23% 30.22 in 10.0 mi NW 9.2 mph 24.2 mph N/A   Clear
5:06 PM 21.2 °F 8.3 °F -9.4 °F 26% 29.97 in 10.0 mi WSW 13.8 mph 20.7 mph N/A   Clear
5:58 PM 12.7 °F 5.0 °F 1.6 °F 61% 30.32 in 10.0 mi Variable 4.6 mph - N/A   Clear
6:12 PM 12.2 °F -3.1 °F 1.4 °F 62% 29.99 in 10.0 mi WSW 13.8 mph 21.9 mph N/A   Clear
6:18 PM 14.0 °F -3.0 °F -2.2 °F 49% 30.00 in 10.0 mi SW 18.4 mph 29.9 mph N/A   Clear
6:23 PM 15.8 °F -1.9 °F -5.8 °F 38% 30.00 in 10.0 mi West 21.9 mph 29.9 mph N/A   Clear
6:58 PM 21.4 °F 5.1 °F -10.1 °F 25% 30.29 in 10.0 mi WNW 23.0 mph 35.7 mph N/A   Clear
7:51 PM 23.0 °F 9.6 °F -11.2 °F 22% 30.04 in 10.0 mi NW 16.1 mph 31.1 mph N/A   Clear
7:58 PM 22.5 °F 9.4 °F -12.6 °F 21% 30.30 in 10.0 mi WNW 15.0 mph 26.5 mph N/A   Clear
8:09 PM 23.0 °F 7.6 °F -13.0 °F 20% 30.04 in 10.0 mi West 21.9 mph 33.4 mph N/A   Clear
8:27 PM 24.8 °F 12.4 °F -9.4 °F 22% 30.04 in 9.0 mi WNW 15.0 mph 38.0 mph N/A   Light Freezing Rain
8:38 PM 23.0 °F 4.4 °F -5.8 °F 28% 30.02 in 10.0 mi West 34.5 mph 41.4 mph N/A   Clear
8:58 PM 23.0 °F 6.3 °F -5.8 °F 28% 30.28 in 10.0 mi West 26.5 mph 39.1 mph 0.00 in   Clear
9:02 PM 23.0 °F 4.1 °F -4.0 °F 31% 30.01 in 6.0 mi West 35.7 mph 50.6 mph N/A   Light Freezing Rain
9:07 PM 23.0 °F 5.4 °F -4.0 °F 31% 30.01 in 4.0 mi West 29.9 mph 50.6 mph N/A   Light Freezing Rain
9:17 PM 23.0 °F 4.1 °F -4.0 °F 31% 30.01 in 5.0 mi West 35.7 mph 47.2 mph N/A   Light Freezing Rain
9:58 PM 25.5 °F 9.7 °F -9.0 °F 22% 30.25 in 10.0 mi WNW 26.5 mph 43.7 mph 0.03 in   Light Freezing Rain
10:05 PM 24.8 °F 9.6 °F -9.4 °F 22% 30.03 in 10.0 mi West 23.0 mph 44.9 mph N/A   Clear
10:18 PM 24.8 °F 11.1 °F -9.4 °F 22% 30.05 in 9.0 mi NW 18.4 mph 49.5 mph N/A   Clear
10:25 PM 24.8 °F 12.9 °F -11.2 °F 20% 30.05 in 10.0 mi WNW 13.8 mph 27.6 mph N/A   Clear
10:53 PM 24.8 °F 10.3 °F -9.4 °F 22% 30.04 in 10.0 mi WNW 20.7 mph 28.8 mph N/A   Clear
10:58 PM 25.0 °F 9.5 °F -9.9 °F 21% 30.24 in 10.0 mi WNW 24.2 mph 29.9 mph 0.00 in   Clear
11:33 PM 24.8 °F 11.1 °F -4.0 °F 28% 30.02 in 10.0 mi WSW 18.4 mph 33.4 mph N/A   Clear
11:34 PM 24.8 °F 14.0 °F -4.0 °F 28% 30.03 in 10.0 mi South 11.5 mph 33.4 mph N/A   Clear
11:58 PM 14.2 °F 5.3 °F -5.1 °F 42% 30.29 in 10.0 mi Variable 5.8 mph - 0.00 in   Clear